Wind_Speed
22 24 27 24 20 16 13 14 13 12 12 10 11 10 9 8 6 5 7 7 7 6 6 6 6 7 7 7 7 9 10 9 8 7 6 6 6 4 3 2 3 2 2
11 21 21 22 19 14 13 13 11 11 9 9 9 7 6 4 5 7 6 6 6 6 5 6 6 6 6 7 7 9 9 9 8 7 6 6 5 5 4 3 2 1 2
16 19 17 18 16 13 12 12 10 9 9 9 7 7 6 6 5 4 3 4 1 2 3 5 6 5 5 7 7 7 8 7 6 6 6 4 4 3 4 4 4 3 2
11 16 13 14 13 11 12 11 10 9 9 6 6 6 4 3 1 1 2 2 3 3 1 1 3 4 4 4 4 5 6 5 2 3 3 1 3 1 1 4 6 6 5
13 13 15 14 11 11 10 9 9 8 7 8 7 6 5 3 3 3 3 3 3 2 0 1 2 1 2 2 1 2 3 2 1 3 5 2 4 4 4 4 6 8 8
8 10 11 11 10 9 8 8 9 9 11 10 10 9 8 7 7 7 7 7 6 4 3 2 3 5 4 3 2 1 2 5 5 12 13 8 10 10 8 6 6 9 11
7 7 7 9 9 7 7 9 10 11 13 15 17 17 15 12 11 11 11 11 11 10 7 4 2 2 5 5 3 4 5 8 13 19 23 7 6 11 10 8 7 10 13
7 8 7 9 7 6 6 9 10 12 15 15 15 16 16 16 16 16 17 18 19 17 12 7 5 2 1 2 3 6 7 8 14 17 16 16 13 13 8 5 8 13 16
7 6 7 6 5 5 7 8 10 11 13 13 13 14 15 16 17 18 17 16 17 20 18 14 12 10 6 3 3 8 11 7 7 9 10 11 14 11 8 6 9 12 14
7 6 5 4 4 5 6 8 9 9 11 12 13 13 15 17 18 18 16 17 18 19 21 18 15 14 12 7 6 6 7 9 7 10 12 14 13 13 9 11 11 14 16
8 6 5 4 4 6 7 8 9 10 12 12 11 12 13 17 14 17 16 18 20 23 22 20 20 17 15 11 9 8 10 13 17 12 12 13 16 16 13 14 14 15 16
8 7 5 6 6 7 7 8 9 9 11 11 14 14 14 15 9 13 14 17 22 23 18 22 21 18 18 16 14 14 14 13 14 17 17 18 18 18 16 17 18 19 21
7 7 7 8 8 7 9 10 8 9 12 12 14 12 13 11 12 14 15 15 18 17 18 16 16 17 18 15 14 14 13 12 14 12 17 18 19 19 19 19 20 21 23
6 8 9 10 8 10 12 10 9 12 12 13 13 15 13 17 16 14 12 16 19 15 13 13 15 17 13 12 11 12 13 13 13 11 14 17 19 20 19 20 21 21 23
7 11 12 12 11 13 12 10 10 11 13 14 15 19 8 25 25 23 21 19 19 11 16 17 15 14 14 15 16 17 14 15 14 14 11 14 16 17 18 20 20 24 24
10 13 14 13 12 12 12 12 11 12 15 14 20 20 21 21 22 20 18 15 14 13 13 13 15 16 17 17 19 20 19 18 14 15 14 12 13 17 22 23 25 25 25
12 14 14 13 12 11 13 12 11 11 14 18 19 19 18 20 18 16 16 14 13 12 11 13 15 17 16 23 24 24 18 16 19 18 22 22 22 24 26 27 26 25 25
11 13 14 12 10 11 11 11 10 11 13 15 12 13 15 15 14 13 12 12 10 11 11 12 11 16 23 30 26 26 26 18 14 16 21 24 19 13 17 23 27 29 30
10 12 12 11 9 10 10 10 10 9 10 10 11 10 12 11 12 12 11 12 11 11 11 12 14 20 29 28 30 29 28 25 21 17 15 16 20 27 22 27 31 30 31
10 10 10 10 9 8 8 9 10 8 7 8 8 8 9 10 10 10 10 10 12 12 12 14 15 20 26 27 31 24 25 25 26 23 23 25 25 25 26 28 26 28 27
12 11 10 10 9 8 7 6 6 5 4 4 5 7 8 10 11 10 10 8 11 12 13 17 22 24 25 26 27 23 23 23 23 21 19 20 21 24 25 27 24 29 31
14 13 12 10 9 8 6 5 4 3 3 1 3 7 8 9 12 11 11 10 11 14 20 24 26 26 27 30 33 20 18 22 27 26 21 21 25 29 29 28 25 24 30
13 14 13 12 11 9 7 6 5 3 1 1 4 6 7 10 12 14 12 10 13 17 20 25 30 31 33 35 23 13 14 18 22 27 31 23 21 25 26 29 31 31 31
11 11 11 10 10 9 8 7 6 4 4 4 5 5 7 10 11 14 12 11 16 19 23 26 27 31 29 28 27 20 18 19 19 20 24 28 29 29 31 32 36 36 37
9 10 9 8 7 8 9 8 6 6 5 5 4 6 8 9 11 13 10 12 18 22 23 24 26 29 18 24 24 21 20 25 28 28 29 27 30 35 38 38 41 44 47
11 11 10 10 9 9 9 7 7 7 6 5 5 6 8 10 9 10 9 15 18 19 20 25 29 27 28 20 21 24 24 25 27 29 32 33 33 35 41 45 45 49 50
Wind_Direction
73 88 99 111 113 115 121 114 108 111 108 108 113 105 94 87 74 69 87 94 94 90 80 90 101 87 74 71 73 72 76 77 71 70 60 43 35 27 40 38 24 8 3
46 87 100 109 111 112 111 108 106 108 106 105 104 90 84 77 80 95 101 76 64 77 79 83 92 92 82 63 80 66 69 70 67 63 57 38 33 21 26 25 347 312 317
71 86 96 104 110 111 109 102 105 108 98 90 86 83 80 76 93 114 127 127 82 34 66 71 82 83 72 63 67 65 72 73 76 74 64 50 49 9 11 353 329 314 290
48 80 110 109 110 106 100 96 102 90 86 82 77 74 78 104 92 68 44 38 23 36 237 43 87 88 78 65 58 60 62 64 91 114 101 93 293 251 34 335 330 319 305
92 113 108 104 106 101 92 91 84 66 59 56 55 56 55 47 41 44 34 24 32 30 191 232 206 148 66 76 92 68 50 291 334 269 188 176 257 294 308 307 314 309 305
79 85 100 106 106 97 93 80 66 58 60 60 60 59 59 61 60 58 48 40 32 12 332 280 250 228 230 232 221 289 297 288 296 253 178 6 326 300 291 286 287 293 293
90 99 108 110 106 102 84 70 68 69 71 74 74 65 61 68 67 58 51 48 45 31 15 359 321 248 241 245 242 301 322 342 310 329 304 87 332 329 301 250 274 286 290
114 115 109 116 111 96 79 73 77 89 78 77 68 58 59 63 62 57 53 52 47 44 46 53 56 74 145 237 247 298 314 313 325 323 327 24 345 0 9 230 280 298 298
118 111 122 123 111 88 89 84 93 99 73 69 61 60 55 57 60 61 52 56 53 52 57 60 62 61 61 60 345 323 320 334 346 335 1 359 6 9 30 23 314 302 301
137 134 131 117 111 109 101 101 106 84 73 73 68 62 63 56 56 59 57 56 53 54 56 58 58 67 65 44 20 347 336 334 353 349 342 352 347 356 352 330 316 310 304
151 146 143 132 134 123 112 119 104 80 79 73 69 66 64 62 45 54 46 48 43 38 43 41 41 42 51 34 5 354 337 338 336 352 346 340 348 339 326 307 306 303 300
156 142 151 146 147 127 123 122 98 82 79 82 78 68 64 78 62 51 44 43 46 55 40 37 35 32 29 21 1 353 344 335 336 339 336 333 329 329 321 319 317 314 310
153 148 153 150 140 129 131 118 100 93 90 85 84 73 63 60 48 48 37 52 47 47 45 41 38 34 28 6 348 341 336 331 321 324 317 318 319 321 320 322 323 316 310
155 152 155 146 142 131 131 120 111 100 93 83 68 61 51 54 49 50 28 58 52 66 61 47 35 31 11 345 328 314 311 313 315 322 321 328 327 323 320 320 320 318 313
160 153 156 148 141 135 131 117 111 94 85 71 62 71 68 74 73 69 60 56 58 28 37 34 28 13 350 337 314 300 295 290 301 311 321 319 321 324 322 313 308 318 315
158 154 155 149 148 141 125 124 111 96 85 83 77 77 78 75 69 65 66 61 59 55 45 32 11 5 8 357 347 333 284 279 286 290 298 309 316 319 321 315 307 306 312
152 151 155 156 151 139 131 124 111 98 88 82 86 71 72 70 68 67 56 47 46 45 35 16 6 10 358 349 345 356 334 307 269 281 289 291 297 295 293 301 302 303 306
146 147 152 156 147 141 133 123 112 99 90 83 90 74 69 68 67 63 50 39 21 17 13 2 7 14 15 12 5 19 19 24 338 295 302 307 319 332 310 308 312 309 303
146 151 151 150 153 146 138 127 118 105 95 85 83 74 63 61 54 55 41 16 5 8 4 357 352 7 18 19 22 21 18 14 3 347 334 324 315 315 316 316 315 314 309
150 153 147 143 160 156 144 129 119 113 106 90 54 47 50 45 38 35 26 9 350 2 5 4 22 16 19 8 4 8 5 4 352 341 321 315 314 315 323 325 325 326 326
158 159 161 158 165 168 157 136 124 115 103 76 38 34 28 24 20 23 15 8 352 6 19 13 22 24 2 357 6 353 351 354 347 343 338 334 326 326 324 321 327 328 323
175 175 173 176 182 182 172 158 156 144 134 92 29 15 11 8 4 13 11 357 6 15 32 37 20 11 356 360 351 334 341 347 345 341 331 326 324 323 320 314 316 319 315
184 186 186 190 192 191 187 196 205 209 255 320 356 355 356 357 358 4 15 6 20 33 31 27 20 1 360 3 9 337 327 337 348 342 332 329 315 311 316 311 312 313 313
190 197 198 203 201 199 201 214 228 237 256 299 326 352 352 353 356 9 16 23 43 41 28 15 6 356 19 20 27 25 0 355 352 351 329 319 319 322 319 318 314 309 308
194 197 205 219 223 224 225 233 234 239 257 285 327 356 349 352 357 22 17 37 38 26 16 9 358 359 4 12 12 12 3 354 352 347 349 338 326 323 321 320 318 319 317
204 200 200 212 222 229 236 241 243 251 258 293 352 350 349 347 8 25 24 35 26 13 356 355 348 349 343 354 358 3 358 354 350 345 345 339 332 323 319 321 321 317 313
Height
5893 5893 5892 5894 5897 5900 5901 5901 5900 5900 5900 5900 5900 5901 5901 5901 5901 5901 5901 5901 5900 5901 5901 5901 5900 5900 5900 5900 5900 5900 5900 5900 5901 5901 5901 5901 5901 5900 5901 5900 5900 5900 5899
5893 5894 5895 5896 5899 5902 5902 5901 5901 5902 5902 5902 5902 5902 5902 5902 5902 5902 5902 5903 5902 5903 5902 5902 5903 5902 5902 5902 5903 5903 5903 5902 5902 5901 5901 5901 5900 5900 5900 5900 5900 5900 5900
5895 5897 5898 5898 5900 5903 5904 5902 5903 5903 5902 5903 5903 5903 5903 5903 5903 5903 5903 5904 5904 5905 5904 5904 5904 5904 5904 5905 5904 5904 5904 5903 5902 5901 5900 5899 5899 5900 5900 5901 5901 5901 5901
5898 5899 5901 5901 5902 5905 5905 5904 5903 5903 5903 5904 5903 5903 5903 5903 5904 5904 5905 5905 5906 5906 5906 5906 5906 5906 5906 5906 5906 5906 5905 5904 5900 5898 5898 5898 5899 5899 5897 5899 5902 5903 5902
5900 5901 5902 5903 5904 5906 5905 5904 5903 5904 5905 5904 5904 5904 5904 5905 5904 5905 5906 5906 5907 5907 5907 5907 5908 5908 5908 5907 5907 5906 5906 5902 5903 5899 5897 5897 5901 5901 5900 5898 5900 5902 5902
5902 5903 5903 5904 5905 5906 5906 5905 5906 5907 5906 5905 5905 5905 5906 5906 5906 5907 5908 5908 5908 5908 5907 5907 5908 5909 5909 5908 5908 5908 5907 5903 5903 5893 5876 5899 5900 5903 5900 5898 5898 5902 5902
5903 5904 5904 5905 5907 5907 5907 5908 5908 5908 5907 5907 5908 5908 5908 5908 5909 5910 5910 5910 5910 5909 5908 5908 5909 5909 5910 5909 5910 5909 5910 5908 5899 5898 5870 5886 5899 5901 5898 5897 5899 5901 5902
5905 5905 5906 5907 5908 5909 5909 5910 5910 5910 5911 5911 5911 5912 5912 5912 5913 5914 5914 5914 5912 5909 5907 5907 5908 5909 5910 5911 5911 5910 5911 5908 5907 5903 5898 5900 5905 5897 5896 5896 5899 5901 5901
5906 5907 5908 5909 5910 5911 5912 5912 5913 5914 5915 5915 5915 5915 5916 5917 5917 5917 5917 5915 5914 5913 5912 5911 5910 5910 5912 5912 5913 5912 5910 5911 5911 5907 5905 5903 5899 5901 5898 5896 5899 5899 5899
5907 5909 5909 5910 5912 5913 5914 5915 5916 5917 5918 5918 5918 5919 5920 5921 5921 5920 5917 5918 5918 5918 5917 5917 5916 5914 5913 5914 5915 5913 5910 5909 5911 5910 5906 5903 5904 5901 5897 5897 5899 5898 5897
5908 5910 5911 5912 5913 5915 5916 5918 5919 5921 5921 5921 5922 5923 5924 5924 5924 5922 5920 5921 5922 5922 5921 5919 5919 5918 5915 5915 5915 5915 5913 5910 5904 5908 5906 5904 5901 5899 5899 5900 5897 5895 5894
5909 5911 5912 5914 5916 5917 5919 5921 5923 5924 5924 5924 5926 5924 5927 5928 5928 5924 5923 5924 5925 5924 5923 5922 5921 5921 5916 5916 5918 5916 5915 5913 5909 5904 5903 5902 5902 5901 5900 5898 5896 5895 5894
5911 5912 5914 5915 5918 5919 5921 5923 5925 5926 5927 5927 5928 5929 5930 5930 5927 5926 5924 5923 5926 5927 5926 5923 5922 5921 5917 5918 5917 5915 5913 5911 5908 5908 5905 5903 5902 5900 5898 5896 5895 5893 5891
5912 5914 5915 5917 5920 5921 5924 5925 5927 5929 5930 5930 5930 5931 5933 5930 5930 5928 5922 5923 5921 5928 5927 5924 5921 5916 5915 5914 5912 5910 5908 5906 5905 5905 5903 5902 5901 5899 5898 5896 5894 5892 5889
5913 5916 5917 5919 5922 5924 5925 5927 5928 5930 5932 5932 5934 5934 5936 5934 5934 5931 5927 5926 5924 5926 5923 5921 5920 5920 5918 5915 5912 5909 5906 5903 5902 5900 5901 5898 5897 5897 5896 5895 5893 5890 5888
5915 5917 5919 5921 5923 5926 5927 5928 5930 5932 5933 5936 5936 5937 5938 5938 5936 5935 5933 5932 5930 5928 5926 5925 5922 5921 5917 5914 5910 5906 5901 5901 5899 5897 5899 5897 5896 5894 5892 5890 5888 5886 5883
5917 5919 5921 5923 5925 5927 5929 5930 5933 5934 5936 5937 5939 5940 5940 5939 5939 5937 5936 5933 5931 5929 5928 5926 5925 5922 5919 5916 5909 5905 5900 5897 5897 5897 5895 5894 5894 5892 5888 5885 5883 5881 5877
5919 5921 5923 5925 5927 5929 5930 5932 5934 5936 5938 5940 5941 5942 5942 5941 5940 5939 5938 5935 5933 5931 5930 5928 5925 5924 5920 5917 5911 5908 5903 5900 5899 5898 5896 5892 5888 5888 5885 5882 5880 5876 5871
5920 5922 5924 5927 5929 5930 5932 5934 5936 5938 5940 5941 5943 5944 5944 5943 5942 5940 5938 5935 5933 5932 5930 5929 5927 5924 5921 5917 5913 5908 5906 5904 5902 5899 5896 5892 5888 5880 5881 5879 5875 5871 5866
5922 5924 5926 5928 5931 5933 5934 5936 5937 5939 5941 5942 5944 5945 5945 5944 5943 5941 5939 5936 5933 5932 5931 5931 5930 5926 5922 5919 5915 5911 5906 5903 5900 5897 5894 5890 5886 5882 5876 5870 5868 5864 5860
5922 5925 5927 5929 5932 5934 5936 5937 5938 5940 5941 5943 5945 5945 5945 5944 5943 5942 5939 5937 5934 5934 5934 5932 5930 5926 5920 5918 5914 5909 5905 5904 5899 5895 5890 5886 5882 5878 5873 5869 5863 5857 5853
5922 5925 5927 5929 5932 5935 5937 5938 5939 5940 5942 5944 5945 5946 5946 5944 5943 5942 5940 5937 5936 5935 5935 5933 5930 5926 5921 5915 5911 5908 5905 5901 5895 5891 5887 5883 5879 5875 5871 5865 5861 5856 5850
5923 5925 5927 5929 5932 5934 5937 5938 5939 5941 5942 5944 5945 5946 5945 5944 5943 5942 5940 5937 5936 5936 5935 5931 5928 5925 5920 5914 5907 5904 5902 5900 5897 5891 5884 5881 5878 5874 5867 5861 5855 5850 5846
5924 5926 5928 5930 5932 5934 5936 5938 5939 5941 5942 5944 5945 5945 5945 5944 5943 5942 5940 5938 5937 5936 5933 5929 5927 5924 5918 5912 5907 5904 5903 5899 5896 5893 5885 5878 5873 5867 5861 5856 5849 5843 5836
5924 5926 5928 5931 5933 5934 5936 5937 5939 5940 5942 5943 5944 5944 5944 5943 5942 5942 5940 5938 5936 5934 5931 5929 5926 5921 5918 5913 5910 5905 5900 5895 5888 5884 5881 5875 5868 5860 5853 5847 5839 5831 5825
5923 5925 5927 5929 5932 5934 5935 5937 5939 5940 5941 5943 5944 5943 5943 5943 5942 5942 5940 5938 5935 5932 5930 5928 5925 5920 5917 5914 5908 5903 5899 5894 5887 5880 5875 5871 5864 5858 5848 5840 5834 5825 5817